Wind_Speed
26 27 27 27 28 28 30 31 32 31 31 31 31 31 31 31 31 32 32 32 33 33 33 33 33 36 37 37 38 39 39 41 43 43 44 45 46 47 48 49 49 50 51 51
26 26 26 26 26 28 28 29 30 30 30 31 32 32 32 30 30 31 32 32 32 33 33 33 34 35 37 37 38 39 39 40 40 41 42 44 44 46 46 48 49 49 50 52
28 27 27 26 26 26 27 28 28 29 29 30 31 31 31 30 30 31 31 31 31 33 33 34 34 36 36 37 38 38 38 39 40 40 41 42 43 44 45 46 47 47 49 50
30 28 28 27 27 27 27 27 28 28 28 29 30 30 31 31 31 31 31 31 31 32 33 33 34 35 36 36 36 36 37 38 39 39 40 40 42 43 44 45 45 46 47 48
30 30 29 28 28 27 27 27 27 28 28 29 30 30 31 32 32 32 32 32 33 34 34 34 34 34 34 34 35 36 37 37 38 39 40 41 41 42 43 44 44 45 46 47
30 31 31 29 28 29 30 29 29 29 30 30 30 31 31 32 32 33 33 33 34 35 35 35 34 34 34 35 36 36 36 37 38 38 40 40 41 41 42 43 43 44 45 47
30 31 29 29 29 29 30 30 30 31 31 31 32 32 32 32 32 32 33 33 34 35 34 34 34 34 34 35 36 36 36 36 37 38 39 40 40 42 42 43 44 45 45 46
30 30 30 31 31 31 31 31 31 31 32 32 32 32 32 32 32 33 33 33 34 33 33 33 34 34 34 35 35 35 36 36 37 37 38 39 40 41 42 43 44 45 45 45
31 31 32 33 33 32 32 31 32 32 33 33 33 33 32 33 33 33 33 32 32 32 32 32 33 34 34 34 35 35 35 36 36 37 38 39 39 40 41 42 43 44 45 45
33 33 33 34 34 33 33 33 34 34 34 35 34 34 33 33 33 32 32 31 31 32 32 32 32 32 33 33 33 34 34 35 36 36 37 38 39 40 41 42 43 43 43 44
34 33 34 34 34 34 34 34 35 35 35 35 35 34 34 33 32 32 31 31 31 31 31 32 32 31 32 32 32 32 33 34 35 36 37 38 39 40 40 41 41 41 41 41
34 34 35 34 34 35 34 34 35 35 35 35 35 34 34 32 32 31 30 30 30 30 30 30 30 30 31 31 31 31 32 33 34 35 36 37 38 38 39 39 39 40 40 40
34 34 35 34 34 34 34 34 34 33 33 33 33 33 33 32 31 31 30 30 30 30 29 29 29 28 29 29 30 30 31 31 32 33 34 35 36 36 37 37 38 38 38 39
34 34 34 33 33 33 33 33 32 32 32 32 32 32 31 31 31 30 30 30 30 30 29 29 29 28 28 27 27 28 29 29 30 31 31 32 33 34 34 34 35 36 36 37
33 33 33 33 33 32 32 32 31 31 32 32 33 33 32 32 31 31 31 30 30 30 30 29 29 28 28 28 27 27 27 27 28 28 29 30 31 32 33 34 34 35 35 36
32 32 32 31 31 31 31 31 31 31 32 32 33 33 33 32 31 31 31 30 30 29 29 29 29 29 29 28 28 28 27 27 28 28 29 30 30 31 31 32 33 34 35 36
32 31 30 30 30 30 31 31 31 31 32 32 32 33 32 31 30 30 30 30 29 28 28 29 28 28 28 28 28 28 27 27 28 29 29 29 29 30 30 31 32 33 34 35
31 30 30 30 29 30 30 31 31 31 31 31 31 31 30 29 28 28 28 28 29 28 28 28 28 28 28 27 27 27 28 27 27 27 28 28 28 29 29 30 30 32 33 33
31 30 30 30 29 30 30 30 31 31 30 30 30 29 28 27 26 26 27 27 27 28 28 27 27 27 27 27 27 27 27 27 27 27 27 27 28 28 29 30 30 31 31 32
31 30 30 30 30 30 30 30 30 30 30 29 28 27 27 27 26 26 26 27 27 27 27 27 27 27 27 27 26 26 27 26 26 27 27 27 27 28 29 29 29 30 30 31
30 30 30 30 30 30 30 29 29 29 29 28 28 27 26 26 26 26 26 26 26 27 27 27 27 27 26 26 26 25 25 25 25 25 26 26 27 27 27 28 28 29 29 30
30 29 29 30 30 29 29 28 28 28 28 27 27 26 26 26 25 25 25 26 26 26 26 26 27 26 26 26 26 25 25 24 24 24 24 25 25 25 25 25 26 26 26 27
30 30 29 29 29 28 28 27 27 27 27 27 26 26 26 25 24 24 24 25 25 25 25 25 25 25 25 25 24 24 24 23 23 23 23 23 23 23 23 24 24 24 25 25
30 29 29 29 28 27 27 27 27 27 27 26 26 26 25 25 24 24 24 24 24 24 24 24 24 24 24 23 23 23 23 22 22 22 22 22 22 22 22 23 23 23 23 24
30 29 28 28 28 27 27 27 26 26 26 26 25 25 25 24 24 24 23 24 24 24 24 23 23 23 22 22 22 22 22 21 21 21 21 21 21 21 21 21 21 21 22 22
29 28 28 27 27 27 26 26 26 25 25 25 25 25 25 25 24 23 24 24 24 24 23 23 22 22 21 21 21 21 21 21 21 21 20 20 20 20 20 20 20 20 20 20
27 27 26 26 26 25 25 25 25 25 25 25 25 25 24 24 24 24 24 24 24 24 23 23 22 21 21 21 21 21 21 21 21 21 20 20 20 20 20 20 20 20 20 21
Wind_Direction
298 297 296 294 292 290 287 285 285 287 285 284 285 287 287 284 281 280 279 278 277 275 274 273 270 267 265 263 261 260 260 259 257 257 255 253 251 251 250 249 250 250 250 250
299 298 297 295 293 291 289 287 286 286 287 286 286 287 287 285 283 282 279 277 277 276 275 273 271 269 266 264 263 262 260 260 259 258 256 253 251 251 251 250 250 250 250 251
299 298 297 295 296 293 290 287 287 288 288 286 286 287 287 286 285 284 281 278 277 276 275 273 271 269 268 267 265 264 262 260 258 257 255 253 253 252 252 251 251 250 251 252
299 298 297 299 297 296 293 289 288 288 288 288 287 286 286 284 284 283 282 279 278 277 277 275 273 272 270 269 267 265 264 261 259 257 255 255 254 252 251 251 251 251 251 252
299 298 298 297 298 296 293 290 289 289 291 291 289 287 286 285 285 283 281 280 279 279 278 277 276 274 271 270 267 265 263 262 261 259 258 257 257 254 253 252 251 251 252 253
299 299 300 300 298 297 295 293 292 291 290 291 290 288 287 285 284 283 282 281 280 280 279 278 276 275 273 271 269 267 265 263 261 260 259 258 257 255 253 253 252 253 254 254
301 301 301 300 300 299 296 295 293 291 291 291 291 291 290 287 285 284 284 282 280 279 279 278 276 275 274 272 271 268 265 264 262 260 259 259 257 255 254 254 254 255 255 255
300 301 302 302 300 299 297 295 293 292 292 292 292 291 291 290 287 286 285 284 281 280 279 277 277 276 274 272 270 269 267 265 262 261 260 260 258 256 255 256 256 256 256 256
297 299 300 300 298 298 296 294 294 292 291 292 291 290 290 289 289 287 286 285 283 281 280 279 278 276 275 273 271 269 267 265 263 262 261 261 260 258 257 258 258 258 258 257
294 296 297 296 296 295 294 294 294 293 292 291 291 290 290 289 288 287 286 286 284 283 282 281 280 278 277 275 273 271 268 266 264 264 264 263 261 260 259 259 259 259 259 258
294 295 294 294 294 293 293 293 293 293 292 292 291 290 290 289 288 287 286 285 286 285 284 282 282 280 278 277 275 273 270 269 267 266 265 264 263 261 261 260 260 259 259 259
294 294 294 294 293 293 292 292 292 292 293 292 291 290 290 289 288 287 286 285 286 286 286 285 284 284 282 280 277 276 274 272 271 269 268 266 264 263 262 262 261 259 259 259
292 293 293 294 295 294 294 293 293 293 294 293 293 292 290 289 288 287 286 285 286 287 286 286 285 286 284 283 280 278 276 275 273 272 270 267 265 263 263 262 261 260 259 259
292 293 293 294 295 295 294 295 294 293 294 294 294 294 293 291 288 286 286 286 285 286 287 286 286 286 286 285 283 280 279 277 275 273 271 269 266 265 263 262 261 261 261 260
293 294 295 295 295 294 294 295 295 295 294 293 294 294 293 291 289 287 285 285 285 285 286 285 285 286 286 286 285 283 281 280 277 275 272 270 268 266 264 263 262 261 261 261
294 294 295 295 295 294 294 295 296 295 295 294 293 294 293 291 289 287 285 285 286 285 285 285 284 285 285 285 284 284 283 281 280 277 274 272 270 268 266 264 263 262 261 261
295 295 295 295 294 293 294 295 296 295 296 295 295 295 294 292 289 287 285 285 285 285 285 285 285 285 285 285 284 283 281 280 279 278 276 274 273 270 268 266 265 264 264 263
296 296 296 296 295 294 293 295 296 297 298 298 297 295 293 291 290 288 285 284 285 285 286 286 286 286 286 285 284 282 281 281 281 279 277 276 274 273 271 269 268 268 267 266
296 297 297 296 295 294 294 295 296 297 298 300 299 296 293 292 291 289 287 286 286 286 286 287 288 288 288 287 286 284 282 282 281 279 278 276 275 274 273 271 270 270 268 267
297 297 296 295 294 294 295 296 296 297 298 299 299 296 293 292 291 290 289 287 287 287 287 288 288 289 290 289 288 287 285 282 281 280 279 277 276 276 275 273 272 271 270 270
298 297 296 294 294 294 294 295 296 297 298 298 298 297 295 293 290 290 289 289 288 288 288 288 288 288 289 289 288 288 287 284 281 280 279 278 278 277 277 275 274 274 273 271
298 297 296 295 295 294 294 295 295 296 296 297 297 296 295 293 291 290 290 290 290 289 289 288 288 288 288 288 288 288 287 286 284 282 281 280 279 279 278 277 276 276 276 274
298 297 297 296 295 295 294 295 295 296 296 297 296 296 296 294 293 292 291 292 292 291 289 288 288 288 288 287 287 286 286 286 284 283 282 281 280 280 280 278 277 277 277 276
298 297 297 297 296 295 295 296 296 296 296 296 296 296 296 295 294 293 294 294 293 292 291 290 289 288 288 287 286 286 285 284 284 283 282 282 282 282 281 280 279 278 277 276
298 297 297 296 296 295 295 295 296 296 295 296 297 296 296 295 294 293 294 294 294 294 292 290 289 288 288 287 286 286 286 285 284 283 282 282 283 283 283 281 280 279 278 277
298 297 297 297 296 295 294 295 296 296 296 296 296 296 296 295 294 294 294 294 294 294 293 291 289 287 286 286 286 286 285 285 284 283 282 282 283 284 283 282 282 281 280 278
299 298 298 298 297 296 295 295 296 296 297 297 296 296 296 295 296 296 295 294 293 292 291 290 288 286 286 286 286 285 284 284 284 284 284 284 285 286 285 283 282 281 281 280
Height
5587 5584 5581 5579 5577 5574 5571 5569 5567 5567 5565 5564 5561 5558 5556 5554 5552 5551 5550 5548 5547 5546 5545 5544 5544 5543 5543 5543 5543 5543 5543 5544 5545 5545 5546 5548 5550 5552 5554 5557 5560 5563 5566 5569
5581 5577 5574 5571 5569 5566 5563 5561 5559 5558 5557 5554 5552 5549 5547 5545 5543 5542 5540 5539 5538 5536 5535 5534 5533 5532 5532 5531 5531 5531 5531 5532 5532 5533 5534 5535 5537 5539 5541 5544 5547 5549 5552 5555
5572 5570 5566 5564 5562 5558 5556 5553 5551 5549 5549 5546 5543 5540 5538 5536 5534 5532 5530 5529 5528 5526 5525 5524 5522 5521 5520 5520 5520 5519 5519 5520 5520 5520 5521 5523 5524 5526 5528 5531 5533 5535 5538 5541
5564 5562 5559 5559 5554 5551 5548 5546 5543 5541 5539 5537 5534 5532 5529 5527 5525 5523 5521 5519 5518 5516 5515 5513 5511 5510 5509 5508 5508 5508 5508 5508 5508 5508 5509 5510 5512 5514 5516 5518 5520 5522 5525 5528
5556 5553 5551 5550 5546 5542 5540 5538 5536 5533 5530 5528 5525 5523 5521 5518 5515 5513 5511 5510 5508 5506 5504 5502 5501 5499 5498 5497 5497 5496 5496 5496 5496 5497 5497 5498 5499 5501 5503 5505 5507 5509 5512 5514
5549 5544 5542 5543 5539 5534 5532 5530 5528 5524 5522 5519 5516 5515 5513 5509 5507 5504 5502 5500 5498 5495 5493 5492 5490 5488 5487 5486 5485 5485 5484 5484 5485 5485 5485 5486 5487 5489 5491 5493 5495 5497 5499 5501
5541 5536 5535 5534 5530 5527 5525 5523 5519 5515 5513 5510 5508 5505 5503 5500 5497 5495 5492 5490 5487 5485 5483 5481 5479 5478 5476 5475 5474 5473 5473 5473 5473 5473 5474 5475 5476 5477 5478 5480 5482 5484 5486 5487
5533 5530 5530 5525 5522 5519 5516 5513 5509 5506 5504 5501 5499 5496 5493 5490 5487 5485 5482 5480 5477 5474 5473 5471 5469 5467 5465 5464 5463 5462 5462 5461 5462 5462 5462 5462 5463 5464 5466 5467 5469 5470 5472 5473
5526 5525 5521 5516 5513 5510 5506 5504 5500 5497 5495 5492 5489 5486 5484 5481 5478 5475 5472 5470 5467 5465 5463 5461 5459 5456 5454 5453 5451 5451 5450 5450 5450 5450 5450 5450 5451 5452 5453 5454 5456 5457 5458 5460
5517 5515 5511 5507 5504 5500 5497 5494 5491 5488 5485 5482 5479 5476 5474 5471 5468 5465 5463 5460 5458 5456 5454 5451 5449 5446 5444 5442 5441 5440 5439 5439 5439 5439 5439 5438 5439 5440 5441 5442 5443 5444 5445 5446
5506 5505 5501 5499 5494 5491 5488 5484 5481 5478 5475 5472 5469 5466 5464 5461 5459 5456 5454 5451 5448 5446 5444 5442 5439 5436 5434 5432 5430 5429 5429 5428 5427 5427 5427 5427 5427 5428 5429 5430 5430 5432 5432 5433
5497 5494 5491 5489 5485 5481 5478 5475 5471 5468 5465 5462 5459 5456 5453 5451 5449 5446 5444 5442 5439 5437 5435 5432 5430 5427 5424 5422 5421 5419 5418 5417 5416 5416 5415 5415 5416 5417 5417 5418 5419 5419 5420 5421
5486 5483 5480 5477 5474 5471 5468 5465 5461 5458 5455 5452 5449 5446 5444 5441 5439 5437 5435 5432 5430 5428 5425 5423 5421 5418 5415 5413 5411 5409 5408 5407 5406 5405 5404 5404 5404 5405 5405 5406 5406 5407 5408 5408
5476 5473 5470 5467 5464 5461 5457 5455 5452 5449 5445 5442 5440 5437 5434 5431 5429 5427 5425 5423 5421 5419 5416 5414 5412 5410 5407 5405 5402 5401 5399 5397 5396 5395 5394 5394 5394 5394 5394 5395 5395 5395 5396 5397
5466 5463 5460 5457 5454 5451 5448 5445 5442 5439 5436 5433 5430 5427 5424 5422 5419 5417 5415 5413 5411 5409 5407 5405 5403 5401 5398 5396 5394 5392 5390 5389 5387 5386 5385 5385 5384 5384 5384 5384 5384 5385 5385 5386
5456 5453 5450 5447 5444 5441 5438 5435 5432 5430 5426 5423 5421 5418 5414 5412 5409 5407 5405 5404 5402 5400 5398 5396 5394 5392 5390 5388 5386 5384 5382 5380 5379 5377 5376 5375 5374 5374 5373 5373 5373 5374 5374 5375
5446 5443 5441 5438 5435 5432 5429 5426 5423 5420 5417 5414 5411 5407 5405 5402 5399 5398 5396 5394 5392 5390 5388 5387 5385 5383 5381 5378 5377 5375 5373 5371 5370 5368 5367 5366 5365 5364 5363 5363 5363 5363 5363 5363
5436 5433 5431 5428 5425 5422 5420 5417 5413 5410 5407 5404 5401 5398 5395 5392 5390 5388 5387 5385 5383 5381 5379 5378 5376 5374 5372 5369 5367 5365 5363 5362 5360 5359 5357 5356 5355 5354 5354 5353 5353 5353 5353 5353
5427 5424 5421 5419 5416 5413 5410 5407 5404 5401 5398 5395 5392 5389 5386 5384 5382 5380 5378 5376 5374 5372 5371 5369 5367 5364 5362 5360 5358 5356 5354 5352 5351 5349 5348 5347 5346 5345 5344 5344 5343 5343 5343 5342
5417 5415 5412 5409 5406 5403 5401 5398 5395 5392 5390 5387 5383 5381 5378 5375 5373 5371 5369 5367 5365 5364 5362 5360 5358 5356 5353 5351 5349 5347 5345 5343 5341 5340 5339 5338 5337 5336 5335 5334 5333 5333 5332 5332
5408 5405 5402 5399 5397 5394 5391 5389 5386 5384 5381 5378 5375 5373 5370 5367 5365 5363 5361 5359 5357 5355 5353 5351 5349 5347 5345 5343 5341 5339 5336 5334 5333 5331 5330 5329 5328 5327 5325 5324 5324 5323 5322 5321
5398 5396 5393 5390 5387 5385 5382 5380 5377 5375 5372 5370 5367 5365 5362 5359 5357 5355 5353 5351 5349 5346 5345 5342 5340 5338 5336 5334 5332 5330 5328 5326 5325 5323 5322 5320 5319 5318 5317 5315 5314 5313 5312 5311
5389 5386 5383 5381 5378 5376 5374 5371 5369 5367 5364 5362 5359 5357 5354 5352 5349 5347 5345 5343 5340 5338 5336 5334 5332 5330 5328 5326 5324 5322 5320 5318 5317 5315 5314 5312 5311 5309 5308 5307 5306 5305 5303 5302
5380 5377 5374 5372 5369 5367 5365 5363 5361 5358 5356 5354 5351 5349 5346 5344 5342 5339 5337 5335 5332 5330 5328 5325 5324 5322 5320 5318 5316 5314 5312 5311 5309 5308 5306 5305 5303 5302 5300 5299 5298 5296 5295 5294
5371 5368 5366 5363 5361 5359 5357 5355 5353 5350 5348 5345 5343 5340 5338 5336 5334 5331 5329 5326 5324 5322 5320 5317 5315 5313 5312 5310 5308 5306 5305 5303 5302 5300 5299 5297 5296 5294 5293 5291 5290 5289 5287 5286
5362 5360 5357 5355 5353 5351 5349 5346 5344 5342 5340 5337 5335 5332 5330 5327 5325 5323 5320 5318 5316 5314 5311 5309 5307 5306 5304 5302 5301 5299 5297 5296 5294 5293 5291 5290 5289 5287 5286 5284 5283 5281 5280 5279
5354 5351 5349 5347 5345 5342 5340 5338 5336 5334 5331 5329 5326 5324 5322 5319 5317 5314 5312 5310 5307 5305 5303 5301 5299 5298 5296 5295 5293 5291 5290 5289 5287 5286 5284 5283 5282 5280 5279 5277 5276 5275 5273 5272